Location: Newark
(49.2191°N, 12.6671°E)
Time: 00:08:56
(UTC+00:00)

Tiros 1 despin weight - All Passes

Search period start: 18 January 2020 00:00
Search period end: 28 January 2020 00:00
Orbit: 593 x 643 km, 48.2° (Epoch: 17 January)

Date Brightness Start Highest point End Pass type
(mag) Time Alt. Az. Time Alt. Az. Time Alt. Az.
18 Jan - 12:50:45 10° SSW 12:54:28 25° SE 12:58:15 10° E daylight
18 Jan - 14:30:58 10° WSW 14:35:32 63° SSE 14:40:10 10° E daylight
18 Jan - 16:12:22 10° W 16:17:02 79° S 16:21:45 10° E visible
18 Jan - 17:53:57 10° W 17:58:26 46° SSW 18:02:55 10° SE visible
18 Jan - 19:36:33 10° WSW 19:39:15 15° SW 19:41:56 10° S visible
19 Jan - 11:29:06 10° SSE 11:30:09 11° SE 11:31:11 10° ESE daylight
19 Jan - 13:06:32 10° SW 13:10:45 37° SSE 13:15:04 10° E daylight
19 Jan - 14:47:25 10° WSW 14:52:03 75° S 14:56:44 10° E daylight
19 Jan - 16:28:55 10° W 16:33:34 70° SSW 16:38:15 10° ESE visible
19 Jan - 18:10:38 10° W 18:14:47 31° SSW 18:18:56 10° SSE visible
20 Jan - 11:43:04 10° S 11:46:14 19° SE 11:49:28 10° E daylight
20 Jan - 13:22:40 10° SW 13:27:09 53° SSE 13:31:41 10° E daylight
20 Jan - 15:03:57 10° W 15:08:35 80° S 15:13:18 10° E daylight
20 Jan - 16:45:29 10° W 16:50:03 55° SSW 16:54:39 10° ESE visible
20 Jan - 18:27:35 10° W 18:31:01 20° SW 18:34:28 10° S visible
21 Jan - 11:58:30 10° SSW 12:02:27 29° SSE 12:06:28 10° E daylight
21 Jan - 13:39:03 10° WSW 13:43:37 69° SSE 13:48:16 10° E daylight
21 Jan - 15:20:30 10° W 15:25:09 76° S 15:29:50 10° ESE daylight
21 Jan - 17:02:06 10° W 17:06:28 39° SSW 17:10:50 10° SE visible
21 Jan - 18:45:24 10° WSW 18:47:09 12° SW 18:48:54 10° SSW visible
22 Jan - 10:35:47 10° SSE 10:38:04 14° SE 10:40:21 10° ESE daylight
22 Jan - 12:14:27 10° SW 12:18:47 44° SSE 12:23:11 10° E daylight
22 Jan - 13:55:32 10° W 14:00:09 78° S 14:04:50 10° E daylight
22 Jan - 15:37:03 10° W 15:41:40 64° SSW 15:46:18 10° ESE daylight
22 Jan - 17:18:53 10° W 17:22:46 26° SW 17:26:40 10° SSE visible
23 Jan - 10:50:40 10° SSW 10:54:13 23° SE 10:57:48 10° E daylight
23 Jan - 12:30:43 10° WSW 12:35:13 60° SSE 12:39:48 10° E daylight
23 Jan - 14:12:05 10° W 14:16:42 80° S 14:21:23 10° E daylight
23 Jan - 15:53:38 10° W 15:58:07 48° SSW 16:02:37 10° SE daylight
23 Jan - 17:36:03 10° W 17:38:57 16° SW 17:41:53 10° S visible
24 Jan - 11:06:21 10° SW 11:10:29 35° SSE 11:14:39 10° E daylight
24 Jan - 12:47:09 10° WSW 12:51:43 74° S 12:56:21 10° E daylight
24 Jan - 14:28:38 10° W 14:33:14 72° SSW 14:37:54 10° ESE daylight
24 Jan - 16:10:18 10° W 16:14:29 33° SSW 16:18:41 10° SE daylight
25 Jan - 09:43:05 10° S 09:46:00 17° SE 09:48:56 10° E daylight
25 Jan - 11:22:27 10° SW 11:26:51 50° SSE 11:31:19 10° E daylight
25 Jan - 13:03:40 10° W 13:08:15 80° S 13:12:55 10° E daylight
25 Jan - 14:45:11 10° W 14:49:44 58° SSW 14:54:19 10° ESE daylight
25 Jan - 16:27:11 10° W 16:30:44 22° SW 16:34:18 10° SSE visible
26 Jan - 09:58:23 10° SSW 10:02:11 27° SSE 10:06:03 10° E daylight
26 Jan - 11:38:48 10° WSW 11:43:18 66° SSE 11:47:53 10° E daylight
26 Jan - 13:20:13 10° W 13:24:48 77° S 13:29:28 10° E daylight
26 Jan - 15:01:48 10° W 15:06:09 42° SSW 15:10:33 10° SE daylight
26 Jan - 16:44:45 10° WSW 16:46:53 13° SW 16:49:01 10° SSW visible
27 Jan - 08:36:02 10° SSE 08:37:49 12° SE 08:39:38 10° ESE daylight
27 Jan - 10:14:17 10° SW 10:18:30 41° SSE 10:22:48 10° E daylight
27 Jan - 11:55:16 10° W 11:59:49 77° S 12:04:27 10° E daylight
27 Jan - 13:36:46 10° W 13:41:19 66° SSW 13:45:57 10° ESE daylight
27 Jan - 15:18:31 10° W 15:22:28 28° SSW 15:26:26 10° SSE daylight
